Tracking 26240 objects as of 6-Oct-2022
HD Live streaming from Space Station
objects crossing your sky now

ONEWEB-0175

Track ONEWEB-0175 now!
10-day predictions
ONEWEB-0175 is classified as:


NORAD ID: 48073
Int'l Code: 2021-025AH
Perigee: 1,215.8 km
Apogee: 1,218.0 km
Inclination: 87.9 °
Period: 109.6 minutes
Semi major axis: 7587 km
RCS: Unknown
Launch date: March 25, 2021
Source: United States (US)
Launch site: VOSTOCHNY COSMODROME (VOSTO)
aabbcc
Your satellite tracking list
Your tracking list is empty




NASA's NSSDC Master Catalog

Two Line Element Set (TLE):
1 48073U 21025AH  22279.14128501 -.00000103  00000-0 -31806-3 0  9993
2 48073  87.9081 228.3734 0001436  64.8387 295.2891 13.13470620 76260
Source of the keplerian elements: AFSPC